Flag for U.S.A. Weather past 2 weeks in El Monte, California, U.S.A.

Now
68 °F

Clear.


Feels Like: 68 °F
Forecast: 66 / 97 °F
Wind: No wind

Location: Fullerton Municipal Airport

Current Time: Jul 24, 2014 at 4:26:56 AM

Latest Report: Jul 24, 2014 at 3:53 AM


Visibility: 10 mi

Pressure: 29.84 "Hg

Humidity: 76%

Dew point: 60 °F

Location of El MonteLocation

Historic Weather in El Monte — Graph

°F

El Monte temperature yesterday

Maximum temperature yesterday: 93 °F (at 2:53 PM)
Minimum temperature yesterday: 67 °F (at 5:53 AM)
Average temperature yesterday: 79 °F

Past Weeks' High & Low Weather Summary

 TemperatureHumidityPressure
High93 °F (Jul 23, 2:53 PM)85% (Jul 12, 4:53 AM)30.05 "Hg (Jul 12, 4:53 AM)
Low65 °F (Jul 18, 5:53 AM)25% (Jul 23, 3:53 PM)29.83 "Hg (Jul 13, 5:53 PM)
Average74 °F64%29.96 "Hg
* Reported Jul 9 5:53 AM — Jul 24 2:53 AM, El Monte, Weather by CustomWeather, © 2014

Note: Actual official high and low records may vary slightly from our data, if they occured in-between our weather recording intervals... More about our weather records

Advertising

El Monte weather history for previous 24 hours

 ConditionsComfort  
Time TempWeatherWind HumidityBarometerVisibility
2:53 AM
Jul 24
69 °FClear.No wind73%29.85 "Hg10 mi
1:53 AM70 °FClear.No wind71%29.86 "Hg10 mi
12:53 AM71 °FClear.No wind68%29.88 "Hg10 mi
11:53 PM
Jul 23
73 °FClear.No wind64%29.89 "Hg10 mi
10:53 PM74 °FClear.3 mph60%29.89 "Hg10 mi
9:53 PM75 °FClear.No wind55%29.88 "Hg10 mi
8:53 PM77 °FSunny.5 mph52%29.87 "Hg10 mi
7:53 PM80 °FSunny.5 mph45%29.87 "Hg10 mi
6:53 PM84 °FSunny.6 mph40%29.87 "Hg10 mi
5:53 PM87 °FSunny.8 mph32%29.87 "Hg10 mi
4:53 PM90 °FSunny.9 mph25%29.88 "Hg10 mi
3:53 PM91 °FSunny.10 mph25%29.89 "Hg10 mi
2:53 PM93 °FSunny.10 mph26%29.90 "Hg10 mi
1:53 PM91 °FSunny.7 mph36%29.92 "Hg10 mi
12:53 PM89 °FSunny.7 mph36%29.94 "Hg10 mi
11:53 AM89 °FSunny.N/A34%29.96 "Hg10 mi
10:53 AM84 °FSunny.5 mph37%29.98 "Hg10 mi
9:53 AM82 °FSunny.No wind41%29.98 "Hg10 mi
8:53 AM77 °FSunny.3 mph52%29.99 "Hg10 mi
7:53 AM73 °FSunny.3 mph59%29.99 "Hg10 mi
6:53 AM69 °FClear.3 mph66%29.98 "Hg10 mi
5:53 AM67 °FClear.No wind68%29.98 "Hg10 mi
4:53 AM68 °FClear.No wind70%29.97 "Hg10 mi
Weather by CustomWeather, © 2014

See weather overviewHow to use our weather pages